sat.trackr.live / text

‹ back to catalog

STARLINK-34018

NORAD 63836 · 2025-093A

PAYLOAD ACTIVE UNKNOWN

§ Identity

Operator
Country
US
Launch date
2025-05-07
Launch site
AFETR
Launch vehicle
Mass (kg)
RCS (m²)

Purposes: comms

External: N2YO · Heavens-Above · Gunter

§ Orbital elements

Epoch: 2026-05-25T00:21:20.867040Z

Period
94.27 min
Inclination
43.0065°
Eccentricity
0.0002223
Mean motion
15.27582852 rev/d
Perigee alt
481.5 km
Apogee alt
484.6 km
Semi-major
6,861.2 km
B*
1.7886e-4
RAAN
6.9939°
Arg perigee
286.1163°
Mean anomaly
73.9444°
Rev number
5,964

§ Raw data

STARLINK-340181 63836U 25093A   26145.01482485  .00004663  00000+0  17886-3 0  99962 63836  43.0065   6.9939 0002223 286.1163  73.9444 15.27582852 59648

JSON: /api/v1/satellites/63836 · /tle

For live sub-satellite position, see the globe view (requires WebGL).

§ Visibility from observer

Set your observer location to see the next 7 days of passes ≥ 10°. The values pass through the URL so the page stays shareable.

No JS? Fill the form by hand. The geolocation button needs JavaScript.